This is the latest recevied weather packets stored in our database for station/object KB1JL-13. If no packets are shown the sender has not sent any weather packets the latest 10 day(s).
| Time | Temp. | Humidity | Pressure | Rain* | Wind** | Luminosity | Snow |
|---|---|---|---|---|---|---|---|
| 1777902636 | 16.67° C | 43% | 1024 hPa | 0 mm | - | 618 W/m² | - |
| 1777902333 | 16.11° C | 42% | 1024 hPa | 0 mm | - | 596 W/m² | - |
| 1777902030 | 16.11° C | 42% | 1024 hPa | 0 mm | - | 576 W/m² | - |
| 1777901729 | 16.11° C | 43% | 1024 hPa | 0 mm | - | 395 W/m² | - |
| 1777901426 | 15.56° C | 45% | 1024.4 hPa | 0 mm | - | 417 W/m² | - |
| 1777901123 | 16.11° C | 45% | 1024.4 hPa | 0 mm | - | 331 W/m² | - |
| 1777900821 | 15.56° C | 45% | 1024.4 hPa | 0 mm | - | 502 W/m² | - |
| 1777900518 | 15° C | 47% | 1024.4 hPa | 0 mm | - | 246 W/m² | - |
| 1777900215 | 15° C | 48% | 1024.4 hPa | 0 mm | - | 289 W/m² | - |
| 1777899911 | 15° C | 48% | 1024.4 hPa | 0 mm | - | 246 W/m² | - |
| 1777899608 | 14.44° C | 48% | 1024.4 hPa | 0 mm | - | 280 W/m² | - |
| 1777899305 | 14.44° C | 50% | 1024.4 hPa | 0 mm | - | 237 W/m² | - |
| 1777899003 | 14.44° C | 50% | 1024.7 hPa | 0 mm | - | 161 W/m² | - |
| 1777898700 | 13.89° C | 49% | 1024.4 hPa | 0 mm | - | 193 W/m² | - |
| 1777898397 | 13.89° C | 50% | 1024.7 hPa | 0 mm | - | 306 W/m² | - |
| 1777898095 | 13.33° C | 52% | 1024.7 hPa | 0 mm | - | 292 W/m² | - |
| 1777897790 | 13.33° C | 51% | 1024.7 hPa | 0 mm | - | 248 W/m² | - |
| 1777897487 | 12.78° C | 51% | 1025 hPa | 0 mm | - | 205 W/m² | - |
| 1777897183 | 12.78° C | 52% | 1024.7 hPa | 0 mm | - | 246 W/m² | - |
| 1777896879 | 12.78° C | 54% | 1024.7 hPa | 0 mm | - | 238 W/m² | - |
| 1777896577 | 12.22° C | 55% | 1024.7 hPa | 0 mm | - | 226 W/m² | - |
| 1777896273 | 12.22° C | 55% | 1024.4 hPa | 0 mm | - | 218 W/m² | - |
| 1777895972 | 11.11° C | 59% | 1024.7 hPa | 0 mm | - | 202 W/m² | - |
| 1777895669 | 10° C | 62% | 1024.7 hPa | 0 mm | - | 188 W/m² | - |
| 1777895366 | 9.44° C | 66% | 1024.7 hPa | 0 mm | - | 178 W/m² | - |
* Rain latest hour (hover to see other rain measurements)
** Current wind speed in m/s (hover to see current wind gust speed)